EW5351 Weather Reports


Display with metric or nautical units.
time (UTC)temp
F
wind
direction
speed
MPH
gust
MPH
rain 1hr
in
rain 24hr
in
rain mn
in
humidity
%
barometer
mb
20190526170515 88 214 4.0 11.0 0.00 0.19 0.19 43 1009.8
20190526170013 88 193 4.0 11.0 0.00 0.19 0.19 42 1009.9
20190526165514 88 195 5.0 15.0 0.00 0.19 0.19 42 1010.0
20190526165012 87 287 5.0 15.0 0.00 0.19 0.19 41 1010.0
20190526164513 87 271 5.0 11.0 0.00 0.19 0.19 42 1010.1
20190526164014 87 244 6.0 16.0 0.00 0.19 0.19 41 1010.0
20190526163513 86 269 6.0 16.0 0.00 0.19 0.19 43 1010.1
20190526163012 86 331 6.0 16.0 0.00 0.19 0.19 43 1010.2
20190526162514 86 282 6.0 14.0 0.00 0.19 0.19 43 1010.3
20190526162012 87 285 6.0 14.0 0.00 0.19 0.19 42 1010.4
20190526161513 87 295 5.0 12.0 0.00 0.19 0.19 42 1010.4
20190526161011 87 306 5.0 12.0 0.00 0.19 0.19 43 1010.5
20190526160512 86 221 4.0 12.0 0.00 0.19 0.19 44 1010.4
20190526160011 85 277 4.0 11.0 0.00 0.19 0.19 46 1010.6
20190526155509 84 240 6.0 11.0 0.00 0.19 0.19 47 1010.7
20190526155009 83 299 7.0 12.0 0.00 0.19 0.19 48 1010.9
20190526154509 83 262 6.0 16.0 0.00 0.19 0.19 48 1010.9
20190526154010 83 269 6.0 16.0 0.00 0.19 0.19 48 1011.1
20190526153509 83 258 6.0 14.0 0.00 0.19 0.19 47 1011.1
20190526153007 84 330 5.0 11.0 0.00 0.19 0.19 48 1011.0
20190526152507 83 294 6.0 15.0 0.00 0.19 0.19 49 1011.2
20190526152006 82 314 6.0 15.0 0.00 0.19 0.19 50 1011.2
20190526151506 82 294 5.0 13.0 0.00 0.19 0.19 50 1011.3
20190526151008 81 275 6.0 13.0 0.00 0.19 0.19 51 1011.4
20190526150506 80 316 5.0 12.0 0.00 0.19 0.19 53 1011.3
20190526150007 80 252 6.0 14.0 0.00 0.19 0.19 54 1011.4
20190526145507 79 280 6.0 14.0 0.00 0.19 0.19 54 1011.6
20190526145007 79 261 6.0 14.0 0.00 0.19 0.19 54 1011.7
20190526144507 79 315 6.0 14.0 0.00 0.19 0.19 55 1011.6
20190526144007 79 327 6.0 14.0 0.00 0.19 0.19 54 1011.5
20190526143508 79 319 5.0 11.0 0.00 0.19 0.19 55 1011.5
20190526143007 78 255 6.0 14.0 0.00 0.19 0.19 56 1011.6
20190526142507 78 310 6.0 14.0 0.00 0.19 0.19 57 1011.7
20190526142007 78 253 5.0 12.0 0.00 0.19 0.19 58 1011.7
20190526141506 77 324 4.0 11.0 0.00 0.19 0.19 59 1011.8
20190526141008 76 298 6.0 13.0 0.00 0.19 0.19 61 1011.8
20190526140506 75 289 7.0 14.0 0.00 0.19 0.19 63 1011.8
20190526140008 75 274 6.0 14.0 0.00 0.19 0.19 62 1011.9
20190526135506 74 240 6.0 12.0 0.00 0.19 0.19 62 1011.9
20190526135006 74 281 6.0 12.0 0.00 0.19 0.19 64 1011.9
20190526134506 74 280 6.0 12.0 0.00 0.19 0.19 65 1011.9
20190526134006 73 272 6.0 12.0 0.00 0.19 0.19 65 1011.9
20190526133508 73 274 6.0 12.0 0.00 0.19 0.19 65 1011.8
20190526133007 73 320 5.0 12.0 0.00 0.19 0.19 65 1011.8
20190526132506 73 229 4.0 12.0 0.00 0.19 0.19 65 1011.8
20190526132006 73 294 3.0 9.0 0.00 0.19 0.19 66 1011.9
20190526131507 72 230 4.0 11.0 0.00 0.19 0.19 69 1012.0
20190526131006 71 269 4.0 11.0 0.00 0.19 0.19 69 1012.0
20190526130506 71 250 3.0 10.0 0.00 0.19 0.19 70 1011.9
20190526130007 70 259 4.0 12.0 0.00 0.19 0.19 71 1011.9
20190526125507 69 318 4.0 12.0 0.00 0.19 0.19 71 1011.9
20190526125007 69 271 4.0 12.0 0.00 0.19 0.19 73 1011.9
20190526124506 68 265 5.0 12.0 0.00 0.19 0.19 74 1011.9
20190526124008 68 231 5.0 11.0 0.00 0.19 0.19 74 1012.0
20190526123508 67 298 4.0 11.0 0.00 0.19 0.19 75 1012.0
20190526123006 67 269 4.0 11.0 0.00 0.19 0.19 76 1011.9
20190526122508 66 211 5.0 12.0 0.00 0.19 0.19 76 1011.9
20190526122005 66 258 4.0 12.0 0.00 0.19 0.19 77 1011.7
20190526121505 65 263 4.0 10.0 0.00 0.19 0.19 79 1011.4
20190526121004 65 155 4.0 10.0 0.00 0.19 0.19 80 1011.5
20190526120504 64 250 4.0 10.0 0.00 0.19 0.19 81 1011.6
20190526120004 64 182 4.0 9.0 0.00 0.19 0.19 83 1011.4
20190526115502 63 262 3.0 9.0 0.00 0.19 0.19 83 1011.6
20190526115002 62 181 4.0 10.0 0.00 0.19 0.19 84 1011.9
20190526114500 62 285 4.0 10.0 0.00 0.19 0.19 86 1012.2
20190526114000 61 220 3.0 8.0 0.00 0.19 0.19 88 1012.2
20190526113459 61 264 3.0 8.0 0.00 0.19 0.19 88 1012.2
20190526112959 60 187 3.0 8.0 0.00 0.19 0.19 89 1012.4
20190526112459 59 270 4.0 8.0 0.00 0.19 0.19 89 1012.1
20190526111959 59 244 3.0 8.0 0.00 0.19 0.19 89 1012.1
20190526111459 59 231 2.0 8.0 0.00 0.19 0.19 89 1012.0
20190526110958 59 175 3.0 8.0 0.00 0.19 0.19 90 1012.0
20190526110457 59 221 3.0 11.0 0.00 0.19 0.19 90 1012.2
20190526105956 59 253 3.0 11.0 0.00 0.19 0.19 89 1012.4
20190526105456 59 182 3.0 11.0 0.00 0.19 0.19 90 1012.3
20190526104956 58 152 3.0 10.0 0.00 0.19 0.19 90 1012.6
20190526104456 58 215 3.0 9.0 0.00 0.19 0.19 90 1012.6
20190526103957 58 138 3.0 9.0 0.00 0.19 0.19 90 1012.5
20190526103456 58 223 3.0 9.0 0.00 0.19 0.19 90 1012.6
20190526102956 58 230 3.0 9.0 0.00 0.19 0.19 90 1012.7
20190526102456 57 171 3.0 11.0 0.00 0.19 0.19 90 1012.6
20190526101956 57 171 3.0 11.0 0.00 0.19 0.19 90 1012.6
20190526101456 57 227 2.0 10.0 0.00 0.19 0.19 90 1012.9
20190526100954 57 283 2.0 7.0 0.00 0.19 0.19 90 1013.0
20190526100454 57 175 2.0 7.0 0.00 0.19 0.19 90 1012.7
20190526095954 57 191 2.0 6.0 0.00 0.19 0.19 89 1012.7
20190526095454 56 203 1.0 6.0 0.00 0.19 0.19 89 1012.8
20190526094955 56 209 2.0 6.0 0.00 0.19 0.19 89 1012.8
20190526094455 56 186 3.0 9.0 0.00 0.19 0.19 89 1012.8
20190526093955 56 179 3.0 9.0 0.00 0.19 0.19 89 1012.8
20190526093455 56 171 2.0 7.0 0.00 0.19 0.19 89 1012.8
20190526092954 56 183 2.0 7.0 0.00 0.19 0.19 89 1012.7
20190526092455 56 209 2.0 8.0 0.00 0.19 0.19 89 1012.8
20190526091952 56 176 3.0 8.0 0.00 0.19 0.19 89 1012.8
20190526091453 56 236 2.0 7.0 0.00 0.19 0.19 89 1012.7
20190526090952 56 213 2.0 7.0 0.00 0.19 0.19 89 1012.7
20190526090452 56 178 3.0 7.0 0.00 0.19 0.19 89 1012.6
20190526085952 56 179 3.0 8.0 0.00 0.19 0.19 89 1012.7
20190526085452 56 206 2.0 8.0 0.00 0.19 0.19 89 1012.8
20190526084953 55 200 3.0 9.0 0.00 0.19 0.19 89 1012.9
20190526084453 55 203 3.0 9.0 0.00 0.19 0.19 89 1012.8
20190526083950 55 194 2.0 6.0 0.00 0.19 0.19 89 1012.9
20190526083451 55 186 2.0 9.0 0.00 0.19 0.19 89 1012.8
20190526082949 55 172 4.0 10.0 0.00 0.19 0.19 88 1012.9
20190526082449 55 202 4.0 10.0 0.00 0.19 0.19 88 1012.8
20190526081947 55 167 4.0 9.0 0.00 0.19 0.19 88 1012.9
20190526081447 55 194 4.0 10.0 0.00 0.19 0.19 88 1013.0
20190526080947 55 176 4.0 10.0 0.00 0.19 0.19 88 1012.9
20190526080447 55 171 4.0 9.0 0.00 0.19 0.19 88 1013.0
20190526075947 55 195 3.0 8.0 0.00 0.19 0.19 88 1012.9
20190526075448 55 203 3.0 8.0 0.00 0.19 0.19 88 1013.1
20190526074948 55 170 3.0 8.0 0.00 0.19 0.19 88 1013.2
20190526074448 54 165 4.0 10.0 0.00 0.19 0.19 88 1013.1
20190526073948 54 159 4.0 10.0 0.00 0.19 0.19 88 1013.3
20190526073448 54 215 4.0 10.0 0.00 0.19 0.19 88 1013.4
20190526072947 54 184 4.0 10.0 0.00 0.19 0.19 88 1013.5
20190526072448 54 175 4.0 10.0 0.00 0.19 0.19 88 1013.5
20190526071948 54 214 4.0 9.0 0.01 0.19 0.19 88 1013.5
20190526071446 54 199 3.0 7.0 0.01 0.19 0.19 88 1013.6
20190526070945 54 175 3.0 9.0 0.02 0.19 0.19 88 1013.7
20190526070447 53 210 3.0 9.0 0.02 0.19 0.19 88 1013.6
20190526065946 53 184 4.0 10.0 0.02 0.19 0.19 88 1013.8
20190526065446 53 156 4.0 11.0 0.02 0.19 0.19 88 1013.6
20190526064947 53 144 4.0 11.0 0.02 0.19 0.19 88 1013.8
20190526064446 53 167 4.0 9.0 0.02 0.19 0.19 88 1013.9
20190526063946 53 173 4.0 9.0 0.09 0.19 0.19 88 1014.1
20190526063446 53 173 3.0 8.0 0.10 0.19 0.19 88 1014.2
20190526062946 53 190 3.0 9.0 0.12 0.19 0.19 88 1014.2
20190526062446 53 129 3.0 9.0 0.13 0.19 0.19 88 1014.4
20190526061945 53 213 3.0 11.0 0.14 0.18 0.18 87 1014.7
20190526061446 53 266 4.0 11.0 0.15 0.18 0.18 87 1014.7
20190526060947 53 180 4.0 10.0 0.14 0.17 0.17 87 1014.8
20190526060446 52 180 4.0 10.0 0.14 0.17 0.17 87 1014.9
20190526055946 52 146 5.0 12.0 0.14 0.17 0.17 87 1015.1
20190526055446 52 148 5.0 12.0 0.14 0.17 0.17 87 1015.2
20190526054945 52 212 4.0 12.0 0.14 0.17 0.17 86 1015.4
20190526054445 52 198 4.0 11.0 0.15 0.17 0.17 86 1015.4
20190526053947 53 238 3.0 11.0 0.09 0.10 0.11 85 1015.6
20190526053447 53 226 4.0 11.0 0.09 0.09 0.09 83 1015.7
20190526052944 53 302 3.0 10.0 0.07 0.07 0.07 82 1015.5
20190526052444 53 292 4.0 12.0 0.06 0.06 0.06 81 1015.7
20190526051943 53 190 5.0 13.0 0.04 0.04 0.04 80 1015.9
20190526051443 54 215 4.0 13.0 0.03 0.03 0.03 79 1015.7
20190526050943 54 261 4.0 12.0 0.03 0.03 0.03 78 1015.6
20190526050443 54 192 5.0 14.0 0.03 0.03 0.03 76 1015.6
20190526045944 55 221 5.0 14.0 0.03 0.03 0.03 74 1015.4
20190526045444 56 182 5.0 14.0 0.03 0.03 0.03 72 1015.6
20190526044945 56 203 6.0 14.0 0.03 0.03 0.03 68 1015.8
20190526044445 58 265 6.0 14.0 0.02 0.02 0.02 65 1016.0
20190526043943 59 175 6.0 23.0 0.01 0.01 0.01 60 1016.0
20190526043442 60 160 7.0 23.0 0.00 0.00 0.00 53 1015.9
20190526042943 61 202 7.0 19.0 0.00 0.00 0.00 45 1015.7
20190526042443 61 198 7.0 19.0 0.00 0.00 0.00 43 1015.6
20190526041939 61 208 5.0 14.0 0.00 0.00 0.00 43 1016.1
20190526041440 61 167 5.0 18.0 0.00 0.00 0.00 43 1016.4
20190526040939 61 154 7.0 18.0 0.00 0.00 0.00 42 1016.6
20190526040439 61 189 7.0 20.0 0.00 0.00 0.00 42 1016.9
20190526035937 61 192 6.0 20.0 0.00 0.00 0.00 42 1016.8
20190526035437 61 190 5.0 14.0 0.00 0.00 0.00 42 1017.0
20190526034938 61 230 5.0 14.0 0.00 0.00 0.00 42 1017.1
20190526034437 61 231 5.0 14.0 0.00 0.00 0.00 42 1017.2
20190526033938 61 212 5.0 14.0 0.00 0.00 0.00 43 1017.4
20190526033437 61 190 4.0 13.0 0.00 0.00 0.00 43 1017.4
20190526032936 61 204 4.0 13.0 0.00 0.00 0.00 43 1017.3
20190526032439 61 176 6.0 18.0 0.00 0.00 0.00 43 1017.4
20190526031939 61 216 5.0 18.0 0.00 0.00 0.00 44 1017.8
20190526031436 61 205 5.0 14.0 0.00 0.00 0.00 44 1017.8
20190526030937 61 204 5.0 12.0 0.00 0.00 0.00 45 1017.8
20190526030437 62 197 5.0 12.0 0.00 0.00 0.00 45 1017.6
20190526025938 62 148 5.0 18.0 0.00 0.00 0.00 46 1017.5
20190526025438 62 210 5.0 18.0 0.00 0.00 0.00 45 1017.5
20190526024938 62 294 5.0 15.0 0.00 0.00 0.00 46 1017.5
20190526024437 62 204 6.0 15.0 0.00 0.00 0.00 46 1017.6
20190526023937 62 184 6.0 13.0 0.00 0.00 0.00 46 1017.6
20190526023437 62 161 6.0 15.0 0.00 0.00 0.00 47 1017.6
20190526022938 62 192 6.0 15.0 0.00 0.00 0.00 47 1017.5
20190526022435 62 201 5.0 15.0 0.00 0.00 0.00 48 1017.6
20190526021935 63 186 7.0 19.0 0.00 0.00 0.00 48 1017.7
20190526021434 63 201 6.0 19.0 0.00 0.00 0.00 48 1017.6
20190526020936 63 158 5.0 12.0 0.00 0.00 0.00 50 1017.6
20190526020434 64 192 5.0 16.0 0.00 0.00 0.00 50 1017.7
20190526015935 64 215 5.0 16.0 0.00 0.00 0.00 49 1017.6
20190526015435 64 100 4.0 12.0 0.00 0.00 0.00 48 1017.6
20190526014935 64 208 5.0 15.0 0.00 0.00 0.00 47 1017.7
20190526014434 64 204 5.0 17.0 0.00 0.00 0.00 46 1017.7
20190526013934 65 164 4.0 17.0 0.00 0.00 0.00 46 1017.5
20190526013435 65 244 4.0 16.0 0.00 0.00 0.00 47 1017.6
20190526012935 65 167 6.0 16.0 0.00 0.00 0.00 47 1017.6
20190526012432 65 183 7.0 15.0 0.00 0.00 0.00 47 1017.7
20190526011933 66 163 6.0 15.0 0.00 0.00 0.00 49 1017.9
20190526011433 66 186 6.0 16.0 0.00 0.00 0.00 49 1017.8
20190526010934 66 140 6.0 16.0 0.00 0.00 0.00 49 1017.8
20190526010433 66 181 6.0 16.0 0.00 0.00 0.00 48 1017.8
20190526005931 67 229 5.0 16.0 0.00 0.00 0.00 48 1017.7
20190526005431 67 191 5.0 15.0 0.00 0.00 0.00 48 1017.7
20190526004932 67 222 6.0 15.0 0.00 0.00 0.00 48 1017.7
20190526004431 67 202 5.0 13.0 0.00 0.00 0.00 47 1017.7
20190526003932 67 152 5.0 16.0 0.00 0.00 0.00 47 1017.7
20190526003431 67 161 5.0 16.0 0.00 0.00 0.00 47 1017.5
20190526002931 68 161 6.0 14.0 0.00 0.00 0.00 47 1017.5
20190526002430 68 203 6.0 14.0 0.00 0.00 0.00 47 1017.4
20190526001930 68 229 6.0 17.0 0.00 0.00 0.00 46 1017.4
20190526001431 68 232 7.0 17.0 0.00 0.00 0.00 46 1017.4
20190526000930 68 223 6.0 15.0 0.00 0.00 0.00 46 1017.3
20190526000431 68 201 5.0 16.0 0.00 0.00 0.00 46 1017.3
20190525235928 69 168 5.0 16.0 0.00 0.00 0.00 46 1017.6
20190525235428 69 217 6.0 13.0 0.00 0.00 0.00 46 1017.6
20190525234928 69 223 5.0 13.0 0.00 0.00 0.00 45 1017.6
20190525234428 69 129 5.0 13.0 0.00 0.00 0.00 45 1017.5
20190525233929 69 249 6.0 15.0 0.00 0.00 0.00 44 1017.6
20190525233427 69 146 6.0 15.0 0.00 0.00 0.00 44 1017.7
20190525232925 70 152 5.0 13.0 0.00 0.00 0.00 44 1017.8
20190525232424 70 185 5.0 18.0 0.00 0.00 0.00 43 1017.8
20190525231924 70 205 5.0 18.0 0.00 0.00 0.00 43 1017.9
20190525231425 70 167 6.0 16.0 0.00 0.00 0.00 43 1018.0
20190525230925 70 171 6.0 16.0 0.00 0.00 0.00 42 1018.1
20190525230424 70 221 6.0 16.0 0.00 0.00 0.00 42 1018.1
20190525225924 70 179 5.0 16.0 0.00 0.00 0.00 42 1018.1
20190525225423 70 151 4.0 10.0 0.00 0.00 0.00 43 1018.0
20190525224924 70 163 4.0 10.0 0.00 0.00 0.00 43 1018.0
20190525224424 69 163 4.0 10.0 0.00 0.00 0.00 44 1018.2
20190525223922 69 179 5.0 10.0 0.00 0.00 0.00 45 1018.3
20190525223423 69 140 7.0 10.0 0.00 0.00 0.00 49 1018.2
20190525222922 69 136 7.0 10.0 0.00 0.00 0.00 49 1018.3
20190525222422 68 129 7.0 10.0 0.00 0.00 0.00 49 1018.3
20190525221924 68 138 8.0 12.0 0.00 0.00 0.00 49 1018.3
20190525221424 68 149 9.0 13.0 0.00 0.00 0.00 49 1018.2
20190525220924 68 145 10.0 15.0 0.00 0.00 0.00 49 1018.2
20190525220423 68 134 11.0 16.0 0.00 0.00 0.00 49 1018.2
20190525215921 67 143 11.0 18.0 0.00 0.00 0.00 49 1018.0
20190525215423 67 107 10.0 18.0 0.00 0.00 0.00 49 1018.0
20190525214920 67 138 9.0 15.0 0.00 0.00 0.00 50 1018.1
20190525214420 67 144 9.0 16.0 0.00 0.00 0.00 50 1018.2
20190525213920 67 136 9.0 16.0 0.00 0.00 0.00 49 1018.3
20190525213420 67 109 10.0 17.0 0.00 0.00 0.00 48 1018.6
20190525212920 67 196 11.0 18.0 0.00 0.00 0.00 48 1018.8
20190525212419 68 115 10.0 18.0 0.00 0.00 0.00 47 1018.8
20190525211919 68 113 10.0 17.0 0.00 0.00 0.00 46 1019.0
20190525211421 68 154 11.0 17.0 0.00 0.00 0.00 46 1019.3
20190525210920 69 139 12.0 16.0 0.00 0.00 0.00 44 1019.2
20190525210419 69 136 10.0 16.0 0.00 0.00 0.00 44 1019.2
20190525205921 69 141 9.0 17.0 0.00 0.00 0.00 45 1019.3
20190525205421 69 140 12.0 17.0 0.00 0.00 0.00 45 1019.3
20190525204921 69 134 13.0 19.0 0.00 0.00 0.00 46 1019.3
20190525204419 69 130 11.0 19.0 0.00 0.00 0.00 45 1019.2
20190525203919 69 125 11.0 17.0 0.00 0.00 0.00 46 1019.4
20190525203417 69 130 12.0 17.0 0.00 0.00 0.00 44 1019.4
20190525202916 70 141 10.0 17.0 0.00 0.00 0.00 43 1019.5
20190525202417 69 135 9.0 15.0 0.00 0.00 0.00 43 1019.6
20190525201916 69 175 8.0 13.0 0.00 0.00 0.00 43 1019.9
20190525201413 69 32 8.0 15.0 0.00 0.00 0.00 43 1020.0
20190525200914 69 175 8.0 15.0 0.00 0.00 0.00 43 1020.1
20190525200413 69 119 10.0 15.0 0.00 0.00 0.00 42 1020.1
20190525195913 69 67 11.0 17.0 0.00 0.00 0.00 42 1020.2
20190525195413 70 129 9.0 17.0 0.00 0.00 0.00 43 1020.3
20190525194913 70 130 9.0 15.0 0.00 0.00 0.00 42 1020.3
20190525194411 70 124 11.0 17.0 0.00 0.00 0.00 42 1020.3
20190525193911 70 134 12.0 17.0 0.00 0.00 0.00 41 1020.4
20190525193410 70 117 11.0 16.0 0.00 0.00 0.00 43 1020.2
20190525192910 70 134 12.0 17.0 0.00 0.00 0.00 44 1020.4
20190525192407 71 119 11.0 17.0 0.00 0.00 0.00 42 1020.4
20190525191908 71 133 10.0 16.0 0.00 0.00 0.00 42 1020.5
20190525191408 71 157 9.0 18.0 0.00 0.00 0.00 43 1020.6
20190525190907 72 95 9.0 18.0 0.00 0.00 0.00 41 1020.6
20190525190407 72 93 10.0 16.0 0.00 0.00 0.00 42 1020.7
20190525185907 71 121 12.0 18.0 0.00 0.00 0.00 43 1020.7
20190525185407 72 109 13.0 18.0 0.00 0.00 0.00 41 1020.7
20190525184909 73 127 11.0 17.0 0.00 0.00 0.00 38 1020.7
20190525184408 75 148 9.0 15.0 0.00 0.00 0.00 37 1020.7
20190525183907 76 150 8.0 14.0 0.00 0.00 0.00 35 1020.8
20190525183408 77 113 5.0 13.0 0.00 0.00 0.00 34 1020.8
20190525182909 77 145 3.0 9.0 0.00 0.00 0.00 33 1020.9
20190525182408 77 132 5.0 10.0 0.00 0.00 0.00 32 1021.0
20190525181908 77 132 5.0 10.0 0.00 0.00 0.00 31 1021.0
20190525181409 77 142 3.0 9.0 0.00 0.00 0.00 29 1021.1
20190525180908 77 163 3.0 9.0 0.00 0.00 0.00 30 1021.1
20190525180408 77 126 3.0 8.0 0.00 0.00 0.00 30 1021.1
20190525175909 76 288 3.0 10.0 0.00 0.00 0.00 31 1021.2
20190525175427 76 144 4.0 10.0 0.00 0.00 0.00 32 1021.4
20190525174408 77 175 4.0 10.0 0.00 0.00 0.00 32 1021.4
20190525173907 77 105 3.0 8.0 0.00 0.00 0.00 32 1021.5
20190525173407 77 296 3.0 8.0 0.00 0.00 0.00 32 1021.6
20190525172909 77 258 4.0 11.0 0.00 0.00 0.00 32 1021.6
20190525172407 78 237 4.0 11.0 0.00 0.00 0.00 32 1021.6
20190525171906 78 317 4.0 13.0 0.00 0.00 0.00 32 1021.8
20190525171404 79 273 4.0 13.0 0.00 0.00 0.00 30 1021.8